GFSGBSN_sfc_rhum_174.txt.gz
RH
92 90 87 85 83 83 84 85 85 85 84 84 83 84 82 80 80 86 87 87 86 86 86 83 85 90 82 55 39 29 64 57 37 23 22 24 24 28 28 26 22 26 24 24 20 18 18
88 85 82 80 79 81 78 81 82 82 80 80 81 82 83 82 81 82 85 87 87 86 86 83 83 90 79 62 20 20 21 24 29 29 31 32 32 26 30 26 29 26 26 28 24 20 19
87 85 83 81 79 79 78 80 79 79 78 78 79 81 83 83 82 83 82 83 83 84 84 80 82 76 85 45 24 20 22 22 22 21 24 27 31 34 31 28 25 26 32 32 29 28 22
88 87 84 82 81 79 80 79 79 76 77 77 78 80 82 83 83 82 81 80 82 83 82 78 83 85 79 32 33 27 24 22 21 21 21 24 30 37 33 27 26 28 38 46 29 29 25
88 87 84 85 83 80 81 81 80 75 76 78 78 80 83 84 84 84 82 82 83 82 81 81 92 90 67 39 32 31 30 28 21 20 23 18 28 35 32 38 43 46 52 45 36 28 28
83 83 84 82 87 82 80 78 80 78 78 78 79 81 84 85 85 85 84 85 79 78 63 64 58 73 46 21 23 23 22 23 22 29 32 33 36 35 40 42 56 51 53 42 44 32 28
80 82 84 83 85 86 83 81 81 81 79 79 80 81 83 85 85 83 92 85 66 70 75 66 64 51 35 28 26 28 27 21 23 38 47 42 54 50 41 39 33 34 39 43 36 29 26
87 86 85 84 83 84 82 83 83 83 81 80 80 82 82 84 83 82 92 72 62 66 81 53 52 50 44 40 48 36 27 28 28 37 37 42 47 44 41 36 37 38 43 43 34 26 29
84 84 84 84 83 82 82 82 84 84 84 83 81 81 81 83 83 85 76 58 65 70 76 55 43 38 32 27 36 31 32 30 25 27 28 40 35 28 36 44 45 42 40 37 33 27 28
82 82 83 82 81 81 82 82 83 84 84 84 82 81 81 83 78 81 84 69 76 82 71 47 36 19 19 18 22 16 16 27 24 24 22 24 22 28 28 29 34 44 33 33 33 34 40
82 83 84 84 84 84 84 83 83 83 83 85 84 83 81 81 89 82 63 73 79 63 50 20 26 19 23 20 25 41 22 21 21 23 23 25 25 30 32 32 26 30 28 29 31 36 37
84 84 85 85 85 85 84 84 84 84 83 83 84 84 83 76 92 80 67 76 87 83 78 41 33 31 36 40 39 31 42 39 34 40 33 28 20 22 26 24 27 30 30 33 34 38 46
86 85 85 85 85 84 84 84 84 84 84 84 84 85 85 70 74 72 75 87 92 92 30 21 29 22 21 26 38 39 40 57 54 59 55 38 34 27 21 26 22 34 38 58 54 58 48
84 84 85 84 84 85 84 84 85 85 85 85 86 86 90 76 78 80 85 97 96 38 41 17 16 20 27 20 20 42 44 48 62 66 88 85 75 35 44 28 29 29 36 64 60 50 40
84 84 84 83 82 81 82 83 83 84 83 84 86 97 98 92 83 87 97 97 71 44 26 22 20 26 28 30 38 36 38 55 50 58 78 91 79 46 35 49 38 34 41 33 52 51 62
84 84 83 83 82 82 81 82 84 84 83 88 97 98 97 84 89 97 99 79 67 37 26 29 37 31 44 40 44 50 47 43 54 60 58 68 87 53 45 46 46 45 35 51 78 80 78
83 83 82 83 83 83 82 82 83 83 84 91 98 99 82 83 94 100 98 82 57 36 37 44 45 46 43 46 46 50 49 47 50 52 64 61 83 64 49 58 64 70 84 86 80 90 85
83 81 82 82 83 83 85 83 80 83 80 93 98 99 89 93 100 99 99 90 56 45 38 45 42 46 50 49 55 54 56 47 46 48 56 59 73 92 63 47 49 70 82 98 99 99 99
83 82 82 82 82 82 82 83 81 82 80 98 100 100 91 94 99 98 96 86 72 63 58 54 54 48 49 54 67 62 57 51 43 47 58 52 73 85 61 64 58 85 93 94 90 100 95
81 80 79 76 79 80 81 82 82 80 78 95 100 100 99 99 91 98 97 95 82 58 60 55 55 49 55 59 53 63 59 52 59 49 58 58 64 70 76 65 52 64 70 62 79 95 73
76 77 80 80 80 77 78 80 81 81 80 95 99 96 88 99 99 96 88 82 77 73 62 51 57 57 58 65 57 56 61 60 65 68 62 59 78 76 64 57 57 46 36 39 55 52 64
72 74 77 76 77 78 78 74 74 76 80 97 99 99 95 87 90 89 94 97 90 74 99 75 63 55 48 62 57 61 69 69 74 74 86 86 85 76 62 48 44 45 42 40 38 33 29
68 72 74 75 76 73 75 78 76 77 83 100 99 95 97 83 97 95 87 77 84 82 68 65 66 64 70 62 70 65 66 67 69 74 88 92 98 96 83 60 64 82 59 52 67 43 44
72 73 74 72 73 76 78 77 78 78 83 99 97 97 94 91 92 83 66 61 64 67 75 62 67 71 57 72 70 73 74 69 70 65 68 84 88 97 87 92 95 54 46 43 47 48 42
70 71 73 73 72 74 76 78 79 77 78 98 94 94 98 99 82 79 82 82 77 76 78 73 66 59 81 77 98 98 88 82 76 63 70 69 83 98 92 91 63 50 41 38 39 46 40
69 68 68 68 71 76 77 76 74 74 73 95 94 93 97 100 86 70 87 82 86 90 87 80 66 78 85 98 97 93 86 66 60 60 53 57 71 80 93 90 93 44 36 39 36 52 50
71 68 68 68 73 73 74 75 76 75 76 94 98 89 99 98 81 80 84 86 99 100 99 100 99 100 97 98 92 85 76 56 67 60 57 79 84 79 74 77 66 53 54 47 71 54 68
72 70 71 73 74 75 76 77 76 76 77 93 98 95 97 97 84 76 79 93 99 99 99 100 99 99 98 93 86 90 78 67 64 57 54 68 91 98 96 96 91 47 47 58 62 72 73
73 72 75 75 76 75 77 77 76 79 81 85 99 96 94 100 97 86 74 75 89 93 98 100 100 95 86 90 84 76 86 91 68 76 54 73 61 77 77 85 67 59 61 59 64 76 77

GFSGBSN_sfc_rhum_177.txt.gz
RH
97 96 94 92 88 85 86 85 85 85 83 83 82 83 79 78 78 80 85 85 84 79 78 78 80 85 82 50 34 23 55 44 38 31 26 32 37 32 33 31 31 27 26 26 27 27 22
94 92 90 88 84 83 81 81 82 82 80 80 81 82 82 78 78 78 81 82 82 81 78 75 76 87 84 46 19 21 22 21 29 31 35 36 36 34 37 33 31 28 27 28 29 30 29
91 89 86 82 80 81 79 78 79 78 79 78 80 81 82 78 78 77 79 81 80 80 77 75 74 80 95 36 23 24 27 24 23 23 26 26 30 40 40 39 31 28 31 32 27 33 26
90 89 86 86 84 81 80 79 77 76 77 77 78 81 83 84 84 84 82 82 80 80 78 78 78 88 68 31 42 41 35 28 27 27 25 23 24 38 38 33 32 34 40 45 33 32 30
91 89 88 88 85 83 82 81 79 77 76 78 79 81 84 85 86 85 83 80 78 78 79 80 90 85 45 37 27 28 35 31 27 24 23 18 34 40 43 47 53 50 56 47 36 30 31
89 88 89 87 90 88 83 79 80 78 78 77 79 82 83 84 86 86 84 80 76 79 74 71 63 68 45 28 26 29 29 31 29 27 32 36 38 40 44 50 66 61 54 48 47 38 35
87 84 82 86 85 88 84 82 80 81 81 79 80 81 83 84 84 84 91 74 71 66 75 55 67 56 40 34 32 32 32 30 25 38 49 46 52 52 40 41 42 42 46 50 38 30 42
89 87 85 84 84 87 82 84 84 83 83 82 81 82 83 84 84 84 90 72 75 75 95 60 58 56 50 46 54 38 32 33 32 34 36 37 53 48 41 41 40 41 46 48 40 35 38
90 89 87 87 85 84 83 83 85 84 84 84 83 82 83 84 84 81 81 64 69 85 86 60 48 51 45 43 49 43 38 34 34 37 34 37 34 31 42 46 56 51 51 50 48 38 33
84 85 85 84 85 85 83 83 84 85 85 85 84 84 83 84 73 82 88 65 76 86 60 37 48 36 28 26 23 28 23 30 37 28 31 30 24 24 25 30 37 48 45 46 48 52 59
84 84 84 84 84 85 84 84 84 83 85 85 85 85 84 81 92 86 73 67 78 43 56 23 33 19 23 22 24 43 22 31 34 28 26 32 28 34 33 29 30 35 30 37 37 41 56
84 81 84 84 84 85 85 85 85 85 84 84 85 84 85 82 93 83 77 80 71 75 53 32 36 33 32 34 35 35 45 32 28 30 33 28 25 22 25 22 24 30 34 36 38 45 52
82 80 80 81 82 83 84 84 84 84 85 85 85 84 87 74 75 81 78 84 82 75 33 27 27 20 26 23 28 45 42 55 56 59 62 61 49 37 28 32 29 30 45 62 65 66 50
83 84 84 85 85 85 85 84 83 83 84 85 86 88 89 82 83 82 84 97 78 32 39 22 20 20 28 37 33 37 48 53 65 67 84 86 74 50 43 37 38 37 35 49 64 61 48
84 84 85 85 84 84 84 83 84 84 84 84 87 98 98 93 87 87 94 100 66 43 33 31 23 25 30 40 43 46 48 44 50 63 72 97 82 51 39 47 52 53 46 29 44 45 60
84 84 85 84 83 82 82 81 81 83 83 86 98 98 97 88 91 95 100 82 71 51 31 36 41 34 41 41 43 48 51 49 54 68 68 67 72 59 49 50 46 56 51 66 78 74 66
85 84 83 84 84 84 83 82 82 80 79 89 96 100 87 94 94 100 99 87 65 45 41 48 46 42 43 48 47 51 47 46 48 45 52 59 81 71 56 50 67 69 79 97 99 90 71
84 84 83 83 83 83 84 85 84 83 81 89 98 99 89 94 100 100 98 94 68 54 47 48 48 41 44 50 54 55 58 47 46 48 50 58 72 90 72 50 59 77 89 94 99 96 97
84 85 83 82 82 82 83 83 81 79 80 98 100 100 93 98 99 97 68 76 80 70 65 58 57 54 51 56 65 62 58 49 49 50 60 52 81 92 60 68 54 88 84 82 88 98 97
82 83 82 80 81 81 81 80 81 80 80 94 100 99 98 100 96 92 95 89 90 97 91 73 75 78 72 69 59 66 61 54 60 61 62 63 63 76 77 62 57 74 77 73 77 97 79
82 82 82 81 80 79 78 78 80 81 81 94 100 99 88 98 98 94 94 88 77 74 62 71 79 68 70 73 65 66 58 55 64 67 72 78 90 74 59 63 63 65 61 56 81 69 71
78 78 82 80 78 78 77 77 81 81 79 96 99 99 93 81 90 97 81 92 74 64 95 79 93 74 79 85 72 72 62 71 69 82 88 89 87 77 74 59 55 57 50 48 46 42 41
73 74 76 77 76 75 75 77 80 81 81 99 99 96 96 81 99 98 92 72 67 64 63 62 81 94 94 89 80 81 70 56 66 79 90 93 97 97 91 78 70 87 62 57 70 46 44
70 71 73 73 73 72 74 77 80 80 80 96 98 97 92 91 92 87 73 68 69 64 68 57 61 73 58 56 71 75 74 68 77 74 68 92 94 97 94 84 97 58 45 44 49 52 48
73 72 72 72 71 72 76 78 80 79 83 97 98 96 97 94 85 78 82 83 78 75 77 75 65 59 56 78 88 98 98 98 93 90 78 69 84 95 96 86 67 56 42 40 41 43 45
72 70 69 71 73 76 78 78 77 74 75 97 97 94 95 98 87 75 82 72 84 94 86 77 61 69 80 88 98 96 93 73 69 73 66 74 77 84 94 92 86 57 40 39 39 58 70
72 69 69 68 70 73 73 73 73 73 74 94 98 89 92 99 84 80 92 91 82 97 96 85 91 97 80 97 96 91 92 60 63 55 78 87 92 92 88 86 70 51 52 51 73 60 70
73 71 71 72 72 73 73 75 75 75 78 93 96 96 90 98 81 73 76 90 84 98 98 98 99 99 99 98 95 93 80 65 60 54 66 81 95 98 95 94 89 53 49 56 56 68 69
76 72 72 74 74 74 74 76 76 75 78 86 96 95 93 100 98 96 83 74 78 94 99 100 99 100 99 98 95 81 84 88 69 73 54 70 66 85 80 84 66 55 55 58 66 71 74

GFSGBSN_sfc_rhum_180.txt.gz
RH
95 96 96 97 95 93 89 86 84 85 84 81 81 80 77 76 76 77 82 82 78 73 72 71 73 78 77 34 28 21 52 42 26 30 34 37 42 41 40 38 37 35 32 28 26 28 31
96 98 97 95 91 88 86 84 81 81 80 80 81 81 80 77 77 77 80 82 81 78 74 72 74 81 78 34 19 23 25 25 22 27 30 39 39 39 43 45 34 33 29 30 31 34 29
98 96 93 91 88 88 84 80 77 76 77 78 79 80 81 78 78 78 78 82 81 79 74 74 77 81 92 22 22 33 37 30 24 22 26 28 33 35 44 47 39 31 36 36 34 35 34
96 94 90 90 88 84 81 79 77 74 77 78 78 80 83 84 84 83 83 83 81 79 75 76 77 89 36 29 40 42 43 36 32 28 26 26 27 34 43 40 38 43 48 52 37 34 30
94 94 91 89 88 85 82 80 78 76 75 78 78 80 83 85 84 84 84 83 81 76 76 81 88 74 29 33 31 23 35 35 33 30 31 21 33 42 48 55 61 62 70 54 42 35 36
94 93 92 90 89 87 85 83 81 78 79 78 78 81 83 84 84 85 85 84 76 76 79 74 68 55 34 25 31 35 36 35 32 30 36 37 45 48 52 58 51 73 61 52 52 42 39
89 90 90 89 86 85 83 82 80 80 80 80 80 81 82 84 84 85 92 73 68 60 82 53 60 46 48 38 39 38 37 36 31 43 48 50 55 57 45 45 43 51 52 54 52 38 44
91 90 90 89 86 86 83 84 84 82 82 81 82 82 83 85 85 85 83 80 84 80 92 67 68 64 52 50 59 34 35 37 37 35 39 38 57 50 43 44 43 45 48 51 49 40 43
92 92 91 89 86 84 85 85 85 83 84 84 84 83 84 86 84 78 87 77 73 90 99 74 63 49 44 47 50 42 40 41 39 39 35 40 36 34 48 53 58 55 52 57 55 52 48
94 94 92 88 87 87 85 85 85 85 85 85 85 84 84 83 75 88 89 71 78 89 69 41 39 39 40 41 28 37 31 36 43 37 40 39 31 30 32 34 42 44 50 52 56 68 77
93 91 88 87 85 85 86 84 84 85 85 86 86 85 85 82 92 84 74 74 83 43 62 26 32 24 27 25 22 41 26 38 40 30 31 33 33 34 36 32 31 36 37 42 45 51 60
87 90 86 85 85 85 85 85 85 85 85 85 85 86 84 83 92 85 82 82 66 72 53 25 34 29 30 29 30 37 44 31 33 36 35 32 27 26 26 25 25 30 37 40 45 51 60
90 87 84 82 82 83 85 86 86 86 85 85 85 85 87 77 80 83 78 77 86 74 30 29 24 22 27 28 25 40 44 54 60 65 65 62 56 44 32 40 34 34 42 59 56 72 52
89 88 86 84 83 83 85 86 85 85 85 85 87 88 89 83 88 82 80 93 84 39 36 29 26 22 26 36 41 44 45 57 61 64 80 72 66 46 48 40 43 44 44 69 62 55 47
86 85 84 85 84 86 86 85 83 83 84 84 87 98 98 93 92 86 91 100 74 45 30 37 28 22 27 40 44 41 49 52 54 69 73 87 84 58 49 46 44 56 54 44 56 50 59
84 85 86 86 86 86 86 84 84 84 84 87 98 97 98 91 93 92 99 82 71 54 40 41 42 37 42 41 38 47 45 49 51 67 69 76 86 55 51 48 53 54 58 85 76 74 65
85 84 85 86 86 85 85 85 84 82 84 86 95 97 86 96 93 100 99 97 71 50 50 53 50 43 38 44 48 51 44 44 47 44 52 64 89 73 58 56 63 69 74 91 93 98 95
86 85 84 84 85 86 86 85 84 82 87 84 97 100 90 97 98 100 98 84 74 70 57 62 57 52 51 48 51 51 50 48 44 47 56 62 86 88 76 53 69 72 76 68 96 97 98
84 85 85 85 84 84 84 84 85 84 80 97 100 99 95 97 99 97 87 78 81 80 78 81 85 62 55 50 55 52 48 42 40 46 64 59 97 93 63 74 59 87 84 81 90 95 96
82 85 85 83 81 81 82 84 84 81 79 96 100 99 98 100 96 100 98 96 92 86 85 83 82 94 95 89 65 68 66 56 60 62 63 66 83 75 72 57 57 78 85 82 83 98 91
82 83 82 82 83 83 81 80 81 80 80 96 100 99 87 97 99 95 91 97 95 83 69 67 87 76 78 91 93 81 67 57 54 51 52 69 71 80 67 57 56 59 63 74 92 78 79
83 82 83 83 81 82 79 80 82 80 79 97 99 99 93 86 87 97 87 90 79 70 66 71 93 91 98 97 82 78 83 70 70 84 92 90 71 81 79 70 73 71 66 62 59 56 68
80 79 80 80 80 77 78 81 82 81 81 100 99 96 93 86 96 99 93 74 70 67 63 68 69 74 71 62 69 99 98 98 96 94 88 98 98 92 79 75 76 96 69 62 70 54 48
75 75 76 76 77 76 78 81 82 80 79 96 98 96 98 96 94 89 75 68 65 62 72 60 59 68 55 51 68 80 79 84 85 81 73 86 96 88 93 95 96 60 53 50 59 58 53
73 72 72 74 73 74 79 80 79 79 79 95 98 96 97 100 82 76 79 82 73 71 78 75 64 55 56 69 87 96 92 92 90 89 80 72 76 95 96 91 67 59 54 53 46 46 44
74 73 73 73 73 77 78 79 78 74 80 96 97 94 96 98 93 72 82 74 88 93 85 77 62 66 81 95 89 90 92 71 91 92 80 77 75 94 96 96 92 54 49 39 36 59 67
73 71 70 72 73 75 76 76 76 77 77 95 97 93 94 99 87 81 95 92 87 94 94 89 92 97 87 97 94 89 81 73 82 70 91 94 97 93 89 89 76 52 48 51 66 60 63
74 72 72 71 71 72 73 74 74 74 73 94 94 96 93 99 84 75 79 86 82 91 96 85 92 97 99 98 95 94 88 70 61 59 79 80 91 95 86 96 91 51 57 58 57 66 70
77 73 73 72 73 74 74 74 75 75 76 86 98 97 96 99 95 93 86 73 72 70 94 95 98 98 100 99 97 93 93 93 67 68 58 77 67 82 78 77 61 61 53 60 68 70 72

GFSGBSN_sfc_rhum_183.txt.gz
RH
93 93 94 95 96 97 93 91 88 85 82 80 80 78 75 74 75 76 82 83 77 74 72 71 71 76 68 23 20 18 53 40 17 17 24 29 33 32 31 29 32 32 26 23 22 23 22
94 94 95 96 97 95 93 91 88 83 80 78 79 79 77 76 76 76 79 82 82 79 76 72 71 79 54 30 16 20 28 25 17 16 16 30 32 29 32 34 31 27 27 27 26 26 25
94 94 95 98 96 94 91 88 84 80 78 77 78 79 78 75 75 75 75 81 82 82 77 74 73 74 71 22 16 27 32 22 20 17 18 20 24 27 30 36 31 28 34 30 26 27 27
92 95 96 97 93 91 88 84 82 80 78 78 75 78 81 80 81 82 82 84 83 81 78 76 75 77 27 20 27 30 33 30 30 28 22 21 24 25 26 29 34 33 37 32 25 27 24
95 97 97 94 93 89 85 84 82 80 77 76 76 80 81 82 83 84 85 84 84 76 76 81 73 49 22 26 23 20 27 29 27 27 28 21 24 27 36 33 36 45 35 40 32 26 26
95 96 96 94 93 91 88 85 83 81 78 76 75 79 80 82 85 86 85 84 73 78 75 70 63 40 26 20 30 33 30 29 28 28 31 28 34 34 40 32 34 37 47 46 36 30 31
96 96 95 93 92 91 86 86 84 81 79 76 76 79 82 84 85 85 78 62 54 51 68 48 48 39 41 38 35 34 32 30 26 29 32 38 39 42 30 31 24 30 39 37 31 31 35
96 96 94 92 89 87 87 84 85 82 81 79 80 82 83 84 85 78 70 77 77 78 89 62 67 59 45 44 51 31 30 30 30 30 32 34 46 40 37 37 38 38 41 42 37 33 38
96 95 94 93 92 89 89 88 86 84 83 81 80 83 85 83 76 76 76 71 64 80 93 64 66 52 42 45 45 32 30 33 35 35 30 33 30 33 42 42 47 46 47 46 45 38 38
96 96 95 92 91 89 89 89 87 88 84 83 83 84 85 80 76 81 78 68 72 83 46 33 25 28 39 40 33 34 28 31 36 34 34 33 26 30 32 35 40 42 40 41 41 48 43
96 96 95 94 92 93 92 88 86 87 86 84 84 84 84 76 82 74 68 74 77 48 69 24 28 22 24 26 23 32 25 33 36 31 32 30 30 34 35 32 29 33 29 36 42 45 48
96 95 95 95 92 90 89 88 85 85 86 85 84 85 84 78 83 70 76 79 63 68 60 24 21 20 18 23 24 30 27 28 30 34 31 29 23 22 25 25 26 26 26 29 33 35 40
94 94 94 94 93 92 90 87 85 85 86 85 84 86 80 73 72 76 81 67 82 68 27 26 21 20 21 30 28 35 40 42 50 48 51 47 44 32 24 25 29 27 32 36 36 44 39
93 92 91 91 90 86 86 88 87 87 86 86 87 87 89 78 81 82 76 86 79 37 33 29 26 22 24 32 35 35 37 42 45 52 60 57 54 47 38 36 39 37 35 43 46 37 33
92 92 92 91 88 85 84 87 87 86 85 89 88 98 95 88 87 79 87 95 61 46 31 35 24 25 26 36 33 31 36 48 54 63 70 76 62 45 48 39 38 47 45 34 49 44 53
90 90 88 85 84 85 86 87 86 86 88 88 97 96 94 90 92 92 96 79 63 50 46 45 36 32 31 31 33 34 32 37 42 54 50 85 86 54 47 42 44 48 47 65 77 81 61
84 84 84 84 86 86 87 87 87 87 89 84 94 94 83 90 91 97 99 87 77 52 49 54 48 44 39 36 32 34 32 34 32 40 46 47 82 64 52 54 62 64 68 80 79 92 91
86 86 88 88 88 88 87 87 86 87 87 85 96 98 87 97 100 99 95 88 72 68 56 61 72 59 58 54 51 43 42 33 36 37 37 42 71 63 51 42 50 66 84 63 93 90 90
87 87 87 88 88 88 87 85 85 88 78 97 100 98 94 97 99 94 81 76 70 69 66 73 77 74 64 62 69 56 50 35 27 29 40 57 74 65 40 52 62 68 72 72 99 96 80
85 86 87 86 86 86 85 85 85 84 78 97 100 100 100 99 99 95 96 92 84 79 74 71 70 75 73 70 69 83 73 57 57 49 61 59 65 63 63 41 49 61 72 82 77 93 71
83 85 85 84 84 83 83 84 83 84 80 95 99 98 83 96 94 92 93 92 91 88 84 70 80 82 72 91 81 75 74 80 67 58 51 57 63 58 52 49 50 52 50 50 76 61 68
79 84 85 84 83 83 84 84 84 84 78 97 100 98 86 86 71 88 87 90 78 67 61 73 78 63 75 86 76 92 87 77 93 70 63 69 63 48 53 48 51 62 54 59 56 54 58
77 82 84 84 83 80 81 84 83 81 82 100 99 94 88 84 88 96 86 66 59 61 54 50 58 69 73 72 60 76 77 82 78 90 92 96 92 80 80 54 58 88 66 61 68 51 51
80 78 78 79 78 78 82 86 84 80 78 97 96 95 96 92 89 82 70 63 60 56 63 50 55 65 49 42 53 58 59 71 75 76 85 90 87 79 78 68 94 45 42 47 52 52 45
78 77 76 76 77 77 83 84 83 83 74 95 97 93 92 94 73 69 74 75 66 63 68 68 61 54 53 60 89 91 84 81 74 79 78 82 84 90 89 71 60 50 46 48 50 43 43
75 74 75 74 75 77 80 79 76 76 78 95 96 93 94 94 85 62 68 64 81 83 74 65 60 63 70 90 95 93 68 46 41 76 70 73 80 87 84 92 80 40 38 36 36 54 47
74 74 74 75 76 77 77 76 76 77 81 94 97 88 94 97 78 73 82 80 77 85 86 80 79 82 81 94 93 83 72 42 58 47 63 95 95 92 80 83 53 40 39 36 54 44 55
74 73 73 74 74 74 74 74 75 74 77 92 96 96 90 97 81 70 71 77 79 84 91 81 86 90 96 97 96 93 79 50 55 45 52 67 87 93 87 96 86 43 45 41 39 46 51
75 74 74 75 75 74 73 73 74 74 75 86 97 94 94 99 90 81 76 64 65 65 80 97 89 90 89 98 94 89 83 93 67 72 52 72 60 66 70 68 53 49 42 49 51 54 58

GFSGBSN_sfc_rhum_186.txt.gz
RH
90 90 93 94 95 95 96 96 92 89 86 83 79 74 71 70 72 74 79 82 76 73 73 73 72 74 37 22 21 14 54 34 11 11 12 17 25 22 22 19 19 21 17 16 15 16 16
91 92 93 94 95 95 96 94 91 89 86 82 79 75 71 71 71 72 75 80 81 79 76 76 73 78 27 26 13 12 14 13 11 10 12 12 16 20 22 22 22 18 19 17 16 17 17
91 92 93 94 94 95 97 93 91 88 84 82 80 76 72 70 70 73 75 81 83 83 80 78 74 40 27 23 12 11 13 12 11 13 14 12 13 22 22 25 20 22 24 17 16 15 15
91 92 92 93 95 97 96 93 89 85 82 82 79 77 73 72 76 80 83 84 85 82 80 77 74 37 22 13 10 14 16 19 20 20 20 17 14 15 23 21 24 25 22 24 16 17 16
91 92 93 93 96 97 95 92 86 83 82 82 79 78 74 78 80 83 84 85 84 76 76 76 50 28 20 21 15 18 20 21 20 19 20 16 18 18 22 25 25 22 27 21 19 16 17
91 92 93 94 96 96 93 88 86 84 82 80 79 78 75 78 81 83 85 79 75 76 59 47 36 32 17 16 22 22 20 23 22 20 22 22 18 20 19 20 26 20 20 24 26 17 20
90 90 93 96 96 94 92 90 91 89 85 82 80 77 76 79 81 83 58 42 34 40 39 28 28 26 20 21 20 19 23 21 18 20 24 26 25 25 19 19 18 18 20 20 18 16 20
92 94 94 97 95 94 92 90 90 90 85 82 82 81 78 76 80 74 47 40 51 53 38 32 34 32 28 28 33 19 17 24 22 24 20 25 30 22 21 25 24 24 27 26 22 19 26
94 95 96 96 96 94 92 92 92 91 88 87 84 82 77 79 69 58 45 51 46 55 51 29 35 33 27 28 28 20 18 20 24 24 23 26 21 22 24 26 30 30 32 30 27 23 23
96 96 96 94 93 93 92 91 91 92 91 89 84 82 80 72 58 56 52 48 50 63 38 23 19 21 27 26 28 17 20 19 23 24 19 22 19 22 23 25 24 32 21 24 28 27 28
96 95 95 95 95 96 95 93 91 91 91 89 85 84 81 75 50 46 50 51 64 61 75 17 24 16 16 25 19 25 21 23 25 23 24 21 20 22 25 23 21 25 21 22 24 26 27
96 95 95 95 95 95 95 95 95 94 92 90 86 86 80 58 54 50 52 57 62 54 71 21 16 15 14 16 16 17 24 22 22 26 25 24 17 18 18 18 20 20 24 25 24 25 31
96 96 96 96 96 96 95 95 94 93 94 92 90 89 72 60 55 60 57 53 56 65 18 20 18 16 16 19 19 22 24 25 30 38 33 27 28 21 19 20 18 21 27 33 32 33 33
96 97 96 96 96 94 93 92 91 89 90 89 89 85 81 59 58 62 51 55 76 29 22 19 19 17 20 18 20 23 22 23 28 40 36 38 35 36 31 28 24 21 24 37 38 29 24
95 96 96 96 94 93 92 91 90 88 89 91 87 85 79 75 74 65 58 87 46 34 26 26 21 22 21 21 23 23 23 26 27 37 50 59 48 36 36 35 32 34 40 24 38 30 34
93 93 95 94 94 92 90 86 86 88 91 85 86 83 76 81 81 70 79 58 40 36 32 32 33 24 26 21 24 23 23 19 28 30 31 54 67 34 40 38 33 38 30 52 47 69 50
93 93 93 92 90 86 84 87 88 89 88 84 80 86 74 80 80 81 95 61 53 43 40 45 39 34 30 31 29 27 24 20 17 22 32 31 48 49 32 39 70 89 87 84 82 97 83
93 92 90 86 85 87 88 88 89 90 86 82 81 98 81 92 95 97 94 64 60 49 47 50 52 48 48 45 48 43 42 30 19 25 31 28 41 62 42 24 23 38 56 57 95 97 94
91 89 87 86 88 88 88 88 89 88 77 66 88 91 88 93 97 91 72 57 54 55 48 50 51 48 40 46 52 41 37 29 26 33 36 32 42 44 30 21 19 32 37 44 75 92 90
89 86 86 86 87 88 87 86 89 83 79 78 95 100 100 99 89 76 80 76 74 63 55 55 50 48 54 62 45 61 44 36 42 44 55 57 53 44 46 28 22 44 81 60 86 93 75
87 86 85 85 86 87 85 86 86 81 78 69 95 94 68 97 100 95 91 82 74 80 63 59 63 59 62 81 54 54 61 56 44 52 60 68 87 53 40 34 31 33 34 34 44 41 57
84 85 86 86 86 85 84 85 84 80 75 78 99 96 70 63 63 73 77 71 62 55 55 52 62 50 51 66 54 66 54 51 53 47 55 60 87 62 54 36 30 34 29 29 29 28 26
80 83 83 83 82 82 83 85 84 79 74 100 88 68 62 75 76 83 60 49 46 44 39 37 40 45 49 46 40 43 47 51 58 63 62 80 88 89 80 36 36 62 40 34 46 30 31
81 83 82 82 82 83 84 84 84 77 69 70 63 60 77 78 70 60 53 46 44 41 47 38 38 46 36 28 35 39 38 39 41 42 47 64 66 73 83 62 89 37 20 21 28 30 28
83 83 80 79 81 84 86 86 85 76 73 60 67 62 76 77 50 51 60 61 50 44 46 46 42 36 36 50 72 74 62 65 50 40 44 50 54 73 88 63 40 29 27 35 38 37 26
82 78 77 78 80 86 85 83 83 79 74 59 62 56 76 79 61 48 56 49 61 61 56 50 44 43 52 67 76 82 62 44 39 28 33 40 59 68 63 83 78 30 19 20 27 44 21
79 76 75 76 78 78 78 78 77 80 73 68 74 65 67 90 51 50 60 60 54 62 68 56 61 58 64 85 81 65 67 44 75 45 36 56 79 92 78 76 46 23 26 26 54 38 24
80 79 79 78 78 78 77 76 76 80 77 68 81 75 69 84 52 53 49 61 59 65 80 62 70 79 85 90 75 86 69 52 59 43 45 48 56 83 79 86 84 25 28 36 27 28 32
78 76 75 75 75 75 75 75 75 75 79 70 74 71 72 92 67 54 51 46 47 48 67 94 96 84 82 83 80 81 69 70 59 63 45 66 39 44 51 74 63 47 31 34 30 32 34

GFSGBSN_sfc_rhum_192.txt.gz
RH
90 89 88 88 89 89 89 90 92 94 94 95 93 90 84 77 71 69 74 77 77 77 75 75 75 77 37 28 25 19 54 43 14 12 12 14 15 15 18 17 16 16 14 12 11 12 11
90 91 90 89 89 91 90 90 92 94 96 95 93 88 84 80 74 69 74 76 79 79 80 76 77 82 33 34 14 12 12 12 12 13 14 13 14 13 16 16 20 17 15 15 14 14 13
88 90 90 90 90 90 91 91 93 94 96 95 91 87 84 81 77 71 74 77 79 81 81 79 78 47 28 28 14 13 12 12 11 12 14 12 12 15 16 18 15 17 20 18 17 16 16
88 90 91 90 90 90 92 93 94 95 96 94 90 86 84 81 77 75 77 78 80 81 80 79 76 36 32 16 12 11 11 11 13 13 14 14 14 17 18 16 17 19 21 26 18 14 13
88 89 91 90 90 90 91 92 94 93 96 94 90 85 83 80 78 77 79 80 82 79 77 72 49 34 33 23 13 11 12 14 14 14 15 13 15 20 18 22 24 20 25 23 19 12 12
89 89 90 90 90 90 90 92 94 94 96 93 89 84 81 79 78 78 80 80 66 71 59 35 27 33 26 22 12 14 14 15 18 17 18 20 20 23 21 22 27 22 20 18 18 13 13
88 89 90 90 90 90 90 91 94 93 96 93 88 86 81 80 79 79 67 41 43 52 43 35 29 26 17 13 12 14 14 15 19 22 26 20 25 28 21 19 18 18 18 18 16 12 14
91 89 89 90 90 91 90 90 93 95 96 92 89 86 83 82 80 78 67 48 40 42 42 33 30 25 19 16 22 17 14 19 22 29 22 23 26 19 17 17 19 20 21 21 18 16 17
93 93 92 90 90 90 90 90 92 96 95 92 89 87 86 85 82 77 60 40 34 33 37 30 24 23 20 18 21 19 14 16 21 23 22 25 20 15 16 18 20 21 23 24 22 18 18
94 95 94 94 91 90 90 91 93 96 94 90 89 90 91 87 74 69 71 41 39 54 79 46 26 20 18 18 22 15 13 16 17 21 18 19 15 17 17 18 18 25 17 18 20 21 27
96 95 95 95 96 94 93 92 97 94 92 90 92 91 92 83 88 84 68 55 60 78 98 29 21 13 15 21 17 15 14 19 23 19 21 20 15 17 19 18 16 20 17 19 21 24 26
95 96 97 96 94 94 95 96 96 93 91 92 93 92 92 94 93 79 67 64 80 98 97 26 15 18 17 19 19 15 17 17 18 21 20 20 16 17 18 17 17 16 18 19 20 23 33
94 93 93 94 93 94 95 97 95 93 93 94 95 93 93 87 94 84 84 90 98 99 42 28 21 15 16 17 16 15 17 23 26 30 28 20 18 14 14 20 19 22 25 36 32 33 35
93 94 95 95 95 96 97 96 96 95 95 95 96 95 94 95 93 88 89 98 99 72 49 22 16 15 19 15 16 17 19 21 17 18 23 26 29 16 21 25 29 29 31 45 49 42 32
92 94 96 96 94 93 94 95 95 95 95 95 92 98 98 97 88 87 95 100 88 53 38 26 18 21 20 17 17 18 21 22 19 19 30 30 30 18 22 27 31 37 42 29 50 44 51
95 94 94 93 92 93 93 94 95 95 95 91 96 96 96 92 91 93 100 95 67 31 27 29 34 26 27 20 21 23 22 18 19 20 24 33 50 28 26 22 22 34 28 57 52 68 62
93 92 92 93 93 94 93 94 94 94 94 93 95 98 96 88 92 96 99 82 50 30 33 36 36 31 23 23 20 22 20 17 16 18 18 20 37 36 28 32 36 36 44 50 90 88 80
92 92 93 93 94 93 92 93 93 92 92 98 96 100 92 90 100 98 92 53 51 34 34 35 36 35 32 29 30 28 28 24 19 21 28 27 41 51 34 23 19 22 29 32 72 80 80
95 94 94 94 93 92 92 92 91 92 91 94 99 98 89 91 100 98 58 54 42 37 36 36 38 33 32 34 40 34 31 24 24 28 59 53 53 58 40 28 22 26 23 24 30 44 57
95 95 93 93 93 92 93 93 93 91 89 86 92 100 100 94 84 73 70 59 57 39 39 34 39 36 42 42 36 42 39 31 30 31 49 42 50 59 68 44 32 40 32 30 37 61 56
95 95 93 93 93 93 93 94 92 89 84 81 94 90 78 100 98 69 59 59 54 63 45 40 43 39 40 55 47 45 37 32 28 36 35 41 57 47 39 32 34 34 33 31 41 39 49
95 95 95 95 95 93 90 90 88 82 68 74 100 96 63 71 62 72 69 75 51 44 48 44 46 36 41 65 53 55 46 44 42 33 36 34 61 45 49 35 28 35 30 26 26 26 27
93 94 94 94 93 92 92 86 79 74 72 100 85 55 56 65 70 79 67 52 46 38 38 35 35 39 40 38 32 32 32 33 34 38 43 48 59 57 66 37 40 62 37 32 38 31 36
89 91 91 89 89 91 89 82 78 72 64 60 48 45 73 76 55 62 48 45 36 34 40 29 26 30 25 22 26 27 28 28 28 28 29 42 45 50 65 49 81 38 22 22 28 37 44
84 84 86 86 90 88 83 82 78 70 66 49 44 45 67 72 44 44 42 41 33 30 33 34 31 25 27 32 48 54 53 48 38 28 26 28 41 62 73 68 45 32 25 25 38 52 46
85 85 84 84 85 86 85 82 77 71 66 47 45 45 67 76 61 34 39 36 49 49 40 35 26 28 35 50 62 70 55 35 32 22 20 24 40 64 86 94 82 37 19 16 21 47 32
86 85 86 86 85 85 85 79 76 72 66 56 51 60 46 82 41 35 45 50 35 41 53 54 44 46 41 72 74 60 50 30 43 37 39 48 58 85 84 82 63 30 22 28 48 52 54
87 88 87 87 86 86 84 81 77 73 69 60 56 54 71 75 50 35 34 40 40 46 73 59 61 61 78 80 69 62 54 44 46 37 49 53 65 72 70 83 79 66 61 54 51 49 56
86 85 85 84 84 84 81 81 81 75 71 65 64 55 48 85 66 43 38 35 32 33 52 75 81 71 80 85 76 84 89 92 67 84 40 69 55 66 56 60 46 52 62 54 52 51 52

GFSGBSN_sfc_rhum_195.txt.gz
RH
85 88 90 90 90 90 88 87 89 92 93 94 95 94 93 90 85 80 78 77 76 78 79 75 76 81 62 39 35 23 66 55 28 17 18 18 20 22 25 22 22 26 24 19 18 17 18
85 88 90 91 90 89 88 87 89 92 93 94 96 95 93 89 85 81 78 77 77 78 80 77 77 82 64 44 21 20 25 20 18 17 19 19 21 19 21 21 24 22 20 21 21 21 21
85 87 89 90 91 90 89 88 89 92 93 94 96 95 93 89 85 80 78 76 78 80 81 76 77 58 44 34 22 20 20 19 17 16 18 17 17 22 22 26 21 21 25 26 24 24 23
86 85 88 90 91 91 90 90 90 91 93 94 96 95 93 89 84 80 77 77 78 80 81 80 75 60 49 23 24 18 19 16 14 14 17 18 20 24 29 25 25 26 28 35 25 23 20
87 86 87 90 91 91 91 90 90 91 93 95 96 95 92 88 83 79 76 76 79 79 82 79 70 57 49 29 19 17 15 17 18 19 21 15 24 27 28 37 40 36 40 34 27 19 22
89 88 88 89 91 91 91 91 91 92 93 94 96 94 91 88 82 78 76 78 72 76 60 43 38 51 38 32 20 17 20 18 23 24 25 26 32 35 38 43 48 39 36 27 29 22 19
91 90 89 88 90 91 91 91 91 93 93 94 96 94 91 86 82 78 73 64 61 73 52 56 48 38 26 24 16 18 17 20 24 29 39 32 43 46 37 33 29 27 27 27 24 19 24
94 92 92 89 88 89 90 90 91 93 92 93 95 94 89 85 83 82 64 55 51 46 55 40 42 37 28 26 32 23 20 26 28 37 34 38 41 29 26 26 27 27 29 30 24 21 22
92 96 94 93 91 90 90 90 91 92 92 94 96 93 89 88 87 88 65 48 44 42 56 48 37 34 38 30 35 29 22 24 29 33 33 39 32 23 24 26 26 25 28 31 30 25 23
93 94 95 93 93 93 91 91 91 92 93 95 95 91 89 90 86 73 75 48 53 57 96 67 48 38 31 27 29 20 20 22 24 28 28 29 22 23 24 26 24 28 24 24 24 31 41
90 96 95 94 95 94 93 93 93 91 92 95 93 90 86 76 89 84 76 65 68 79 99 52 40 22 23 27 22 20 18 23 29 27 26 30 25 27 27 24 22 28 25 25 29 33 34
83 90 93 97 95 95 96 96 96 94 94 95 92 90 82 96 97 90 85 69 89 98 97 73 22 24 27 26 25 21 24 23 25 28 26 30 22 25 24 21 23 24 27 28 29 33 46
79 85 91 93 94 96 97 96 96 96 97 93 91 88 82 91 95 92 88 90 99 99 82 69 29 22 24 28 27 24 26 29 34 39 40 29 26 21 19 24 24 27 39 58 53 54 45
79 78 88 93 94 95 96 97 97 97 96 94 93 92 94 97 95 93 89 97 99 93 79 46 28 21 26 20 22 22 21 25 27 29 31 38 41 23 26 38 48 43 44 68 72 68 64
81 76 83 91 95 95 94 95 98 97 96 96 93 99 99 100 95 90 94 100 98 95 75 66 31 32 25 22 26 23 25 30 26 32 50 49 35 26 26 28 34 49 62 45 58 63 80
82 75 81 92 94 95 97 97 95 94 94 90 98 97 97 98 96 98 99 98 98 64 42 56 41 37 36 36 38 30 28 23 23 23 28 36 54 32 30 26 29 37 32 69 73 91 75
83 79 83 94 97 98 95 93 92 92 89 79 92 99 99 95 92 99 100 100 89 44 42 54 56 58 47 40 31 31 28 27 21 27 29 36 50 46 32 36 37 46 62 70 81 93 96
80 84 94 96 95 94 93 92 92 88 84 84 98 100 98 93 99 100 99 87 66 56 51 56 51 52 44 41 42 38 31 32 29 34 43 54 57 65 42 32 29 31 37 40 82 68 88
88 93 97 94 92 90 91 91 87 86 82 97 99 99 96 96 99 99 90 82 64 55 54 61 57 46 39 40 49 39 41 37 30 49 62 51 74 82 50 38 35 40 35 36 46 69 68
95 94 93 91 92 92 91 87 88 90 93 94 99 99 100 100 98 87 94 97 76 44 42 38 40 43 49 50 44 51 39 38 41 47 58 51 61 71 72 56 51 57 44 36 47 76 64
95 95 95 94 93 91 90 90 91 96 91 92 99 99 94 99 100 84 76 73 72 64 44 44 51 47 55 71 61 61 52 47 41 43 48 58 76 61 54 46 47 48 46 44 53 48 58
94 95 94 93 92 93 92 92 96 90 83 96 100 99 82 93 84 90 89 78 74 55 54 51 60 45 62 81 70 72 57 55 56 45 48 46 76 58 61 46 43 45 37 36 34 33 35
92 93 92 91 95 94 94 94 88 83 84 100 95 70 83 82 88 87 84 69 55 49 56 40 49 58 64 58 51 49 44 46 52 57 57 64 81 79 75 50 53 72 47 40 44 36 37
93 94 93 94 95 94 90 87 84 78 76 89 77 71 89 95 84 76 56 54 51 51 58 43 40 40 39 34 35 37 38 36 40 38 39 55 62 76 75 63 92 47 29 27 31 30 28
93 94 94 94 94 92 88 84 78 74 78 69 67 74 88 92 65 65 61 60 48 43 44 43 39 39 38 40 74 73 78 65 51 37 38 39 50 79 78 72 53 46 37 37 41 48 30
91 92 91 89 87 87 85 80 77 74 78 72 82 79 93 93 76 47 62 54 78 71 56 46 36 48 46 86 89 86 84 56 50 35 35 34 44 62 82 96 94 44 54 52 50 57 58
87 88 87 85 85 83 82 80 77 79 78 71 83 82 85 95 59 51 79 74 57 78 90 72 63 61 59 95 96 92 77 52 64 56 51 66 84 86 86 95 78 55 48 53 82 72 62
88 88 88 88 87 86 84 82 80 80 78 78 94 80 90 98 76 53 49 60 68 84 90 78 81 80 93 94 96 92 86 68 72 57 64 76 86 94 90 93 84 50 56 69 63 63 64
87 87 88 88 89 88 86 82 80 79 80 78 90 71 75 97 90 67 59 54 54 48 82 90 87 90 94 95 96 98 95 97 82 91 57 91 94 96 95 92 70 54 66 63 69 78 73